Time,TemperatureF,DewpointF,PressureIn,WindDirection,WindDirectionDegrees,WindSpeedMPH,WindSpeedGustMPH,Humidity,HourlyPrecipIn,Conditions,Clouds,dailyrainin,SoftwareType,DateUTC
2013-01-29 00:00:00,63.9,60.3,29.89,NNE,23,1.0,-999.0,88,0.01,,,0.01,Wunderground v.1.15,2013-01-29 10:00:00,
2013-01-29 00:05:00,63.9,60.3,29.89,NNE,23,1.0,-999.0,88,0.01,,,0.01,Wunderground v.1.15,2013-01-29 10:05:00,
2013-01-29 00:10:00,63.9,60.3,29.89,NNE,23,1.0,-999.0,88,0.01,,,0.01,Wunderground v.1.15,2013-01-29 10:10:00,
2013-01-29 00:15:00,63.9,60.3,29.89,NNE,23,1.0,-999.0,88,0.00,,,0.01,Wunderground v.1.15,2013-01-29 10:15:00,
2013-01-29 00:20:00,63.9,60.3,29.89,NNE,23,1.0,-999.0,88,0.00,,,0.01,Wunderground v.1.15,2013-01-29 10:20:00,
2013-01-29 00:25:00,63.9,60.3,29.89,NNE,23,1.0,-999.0,88,0.00,,,0.01,Wunderground v.1.15,2013-01-29 10:25:00,
2013-01-29 00:30:00,63.9,60.3,29.89,NNE,23,1.0,-999.0,88,0.00,,,0.01,Wunderground v.1.15,2013-01-29 10:30:00,
2013-01-29 00:35:00,63.9,60.3,29.89,NNE,23,1.0,-999.0,88,0.00,,,0.01,Wunderground v.1.15,2013-01-29 10:35:00,
2013-01-29 00:40:00,63.9,60.3,29.89,NNE,23,1.0,-999.0,88,0.00,,,0.01,Wunderground v.1.15,2013-01-29 10:40:00,
2013-01-29 00:45:00,63.9,60.0,29.88,NNE,23,1.0,-999.0,87,0.00,,,0.01,Wunderground v.1.15,2013-01-29 10:45:00,
2013-01-29 00:50:00,63.9,60.0,29.88,NNE,23,1.0,-999.0,87,0.00,,,0.01,Wunderground v.1.15,2013-01-29 10:50:00,
2013-01-29 00:55:00,63.9,60.0,29.88,NNE,23,1.0,-999.0,87,0.00,,,0.01,Wunderground v.1.15,2013-01-29 10:55:00,
2013-01-29 01:00:00,63.9,60.0,29.88,NNE,23,1.0,-999.0,87,0.00,,,0.01,Wunderground v.1.15,2013-01-29 11:00:00,
2013-01-29 01:05:00,63.9,60.0,29.88,NNE,23,1.0,-999.0,87,0.00,,,0.01,Wunderground v.1.15,2013-01-29 11:05:00,
2013-01-29 01:10:00,63.9,60.0,29.88,NNE,23,1.0,-999.0,87,0.00,,,0.01,Wunderground v.1.15,2013-01-29 11:10:00,
2013-01-29 01:15:00,64.1,60.5,29.88,NNE,23,1.0,-999.0,88,0.00,,,0.01,Wunderground v.1.15,2013-01-29 11:15:00,
2013-01-29 01:20:00,64.1,60.5,29.88,NNE,23,1.0,-999.0,88,0.00,,,0.01,Wunderground v.1.15,2013-01-29 11:20:00,
2013-01-29 01:25:00,64.1,60.5,29.88,NNE,23,1.0,-999.0,88,0.00,,,0.01,Wunderground v.1.15,2013-01-29 11:25:00,
2013-01-29 01:30:00,64.1,60.5,29.88,NNE,23,1.0,-999.0,88,0.00,,,0.01,Wunderground v.1.15,2013-01-29 11:30:00,
2013-01-29 01:35:00,64.1,60.5,29.88,NNE,23,1.0,-999.0,88,0.00,,,0.01,Wunderground v.1.15,2013-01-29 11:35:00,
2013-01-29 01:40:00,64.1,60.5,29.88,NNE,23,1.0,-999.0,88,0.00,,,0.01,Wunderground v.1.15,2013-01-29 11:40:00,
2013-01-29 01:45:00,64.8,61.2,29.88,NNE,23,0.0,-999.0,88,0.00,,,0.01,Wunderground v.1.15,2013-01-29 11:45:00,
2013-01-29 01:50:00,64.8,61.2,29.88,NNE,23,0.0,-999.0,88,0.00,,,0.01,Wunderground v.1.15,2013-01-29 11:50:00,
2013-01-29 01:55:00,64.8,61.2,29.88,NNE,23,0.0,-999.0,88,0.00,,,0.01,Wunderground v.1.15,2013-01-29 11:55:00,
2013-01-29 02:00:00,64.8,61.2,29.88,NNE,23,0.0,-999.0,88,0.00,,,0.01,Wunderground v.1.15,2013-01-29 12:00:00,
2013-01-29 02:05:00,64.8,61.2,29.88,NNE,23,0.0,-999.0,88,0.00,,,0.01,Wunderground v.1.15,2013-01-29 12:05:00,
2013-01-29 02:10:00,64.8,61.2,29.88,NNE,23,0.0,-999.0,88,0.00,,,0.01,Wunderground v.1.15,2013-01-29 12:10:00,
2013-01-29 02:15:00,65.2,61.6,29.87,NNE,23,0.0,-999.0,88,0.00,,,0.01,Wunderground v.1.15,2013-01-29 12:15:00,
2013-01-29 02:20:00,65.2,61.6,29.87,NNE,23,0.0,-999.0,88,0.00,,,0.01,Wunderground v.1.15,2013-01-29 12:20:00,
2013-01-29 02:25:00,65.2,61.6,29.87,NNE,23,0.0,-999.0,88,0.00,,,0.01,Wunderground v.1.15,2013-01-29 12:25:00,
2013-01-29 02:30:00,65.2,61.6,29.87,NNE,23,0.0,-999.0,88,0.00,,,0.01,Wunderground v.1.15,2013-01-29 12:30:00,
2013-01-29 02:35:00,65.2,61.6,29.87,NNE,23,0.0,-999.0,88,0.00,,,0.01,Wunderground v.1.15,2013-01-29 12:35:00,
2013-01-29 02:40:00,65.2,61.6,29.87,NNE,23,0.0,-999.0,88,0.00,,,0.01,Wunderground v.1.15,2013-01-29 12:40:00,
2013-01-29 02:45:00,64.9,61.6,29.87,NNE,23,0.0,-999.0,89,0.00,,,0.01,Wunderground v.1.15,2013-01-29 12:45:00,
2013-01-29 02:50:00,64.9,61.6,29.87,NNE,23,0.0,-999.0,89,0.00,,,0.01,Wunderground v.1.15,2013-01-29 12:50:00,
2013-01-29 02:55:00,64.9,61.6,29.87,NNE,23,0.0,-999.0,89,0.00,,,0.01,Wunderground v.1.15,2013-01-29 12:55:00,
2013-01-29 03:00:00,64.9,61.6,29.87,NNE,23,0.0,-999.0,89,0.00,,,0.01,Wunderground v.1.15,2013-01-29 13:00:00,
2013-01-29 03:05:00,64.9,61.6,29.87,NNE,23,0.0,-999.0,89,0.00,,,0.01,Wunderground v.1.15,2013-01-29 13:05:00,
2013-01-29 03:10:00,64.9,61.6,29.87,NNE,23,0.0,-999.0,89,0.00,,,0.01,Wunderground v.1.15,2013-01-29 13:10:00,
2013-01-29 03:15:00,65.2,61.9,29.87,NNE,23,0.0,-999.0,89,0.00,,,0.01,Wunderground v.1.15,2013-01-29 13:15:00,
2013-01-29 03:20:00,65.2,61.9,29.87,NNE,23,0.0,-999.0,89,0.00,,,0.01,Wunderground v.1.15,2013-01-29 13:20:00,
2013-01-29 03:25:00,65.2,61.9,29.87,NNE,23,0.0,-999.0,89,0.00,,,0.01,Wunderground v.1.15,2013-01-29 13:25:00,
2013-01-29 03:30:00,65.2,61.9,29.87,NNE,23,0.0,-999.0,89,0.00,,,0.01,Wunderground v.1.15,2013-01-29 13:30:00,
2013-01-29 03:35:00,65.2,61.9,29.87,NNE,23,0.0,-999.0,89,0.00,,,0.01,Wunderground v.1.15,2013-01-29 13:35:00,
2013-01-29 03:40:00,65.2,61.9,29.87,NNE,23,0.0,-999.0,89,0.00,,,0.01,Wunderground v.1.15,2013-01-29 13:40:00,
2013-01-29 03:45:00,65.6,61.9,29.87,NNE,23,0.0,-999.0,88,0.00,,,0.01,Wunderground v.1.15,2013-01-29 13:45:00,
2013-01-29 03:50:00,65.6,61.9,29.87,NNE,23,0.0,-999.0,88,0.00,,,0.01,Wunderground v.1.15,2013-01-29 13:50:00,
2013-01-29 03:55:00,65.6,61.9,29.87,NNE,23,0.0,-999.0,88,0.00,,,0.01,Wunderground v.1.15,2013-01-29 13:55:00,
2013-01-29 04:00:00,65.6,61.9,29.87,NNE,23,0.0,-999.0,88,0.00,,,0.01,Wunderground v.1.15,2013-01-29 14:00:00,
2013-01-29 04:05:00,65.6,61.9,29.87,NNE,23,0.0,-999.0,88,0.00,,,0.01,Wunderground v.1.15,2013-01-29 14:05:00,
2013-01-29 04:10:00,65.6,61.9,29.87,NNE,23,0.0,-999.0,88,0.00,,,0.01,Wunderground v.1.15,2013-01-29 14:10:00,
2013-01-29 04:15:00,65.3,61.7,29.86,NNE,23,0.0,-999.0,88,0.00,,,0.01,Wunderground v.1.15,2013-01-29 14:15:00,
2013-01-29 04:20:00,65.3,61.7,29.86,NNE,23,0.0,-999.0,88,0.00,,,0.01,Wunderground v.1.15,2013-01-29 14:20:00,
2013-01-29 04:25:00,65.3,61.7,29.86,NNE,23,0.0,-999.0,88,0.00,,,0.01,Wunderground v.1.15,2013-01-29 14:25:00,
2013-01-29 04:30:00,65.3,61.7,29.86,NNE,23,0.0,-999.0,88,0.00,,,0.01,Wunderground v.1.15,2013-01-29 14:30:00,
2013-01-29 04:35:00,65.3,61.7,29.86,NNE,23,0.0,-999.0,88,0.00,,,0.01,Wunderground v.1.15,2013-01-29 14:35:00,
2013-01-29 04:40:00,65.3,61.7,29.86,NNE,23,0.0,-999.0,88,0.00,,,0.01,Wunderground v.1.15,2013-01-29 14:40:00,
2013-01-29 04:45:00,64.4,60.8,29.87,NNE,23,0.0,-999.0,88,0.00,,,0.01,Wunderground v.1.15,2013-01-29 14:45:00,
2013-01-29 04:50:00,64.4,60.8,29.87,NNE,23,0.0,-999.0,88,0.00,,,0.01,Wunderground v.1.15,2013-01-29 14:50:00,
2013-01-29 04:55:00,64.4,60.8,29.87,NNE,23,0.0,-999.0,88,0.00,,,0.01,Wunderground v.1.15,2013-01-29 14:55:00,
2013-01-29 05:00:00,64.4,60.8,29.87,NNE,23,0.0,-999.0,88,0.00,,,0.01,Wunderground v.1.15,2013-01-29 15:00:00,
2013-01-29 05:05:00,64.4,60.8,29.87,NNE,23,0.0,-999.0,88,0.00,,,0.01,Wunderground v.1.15,2013-01-29 15:05:00,
2013-01-29 05:10:00,64.4,60.8,29.87,NNE,23,0.0,-999.0,88,0.00,,,0.01,Wunderground v.1.15,2013-01-29 15:10:00,
2013-01-29 05:15:00,63.9,60.3,29.87,NNE,23,1.0,-999.0,88,0.00,,,0.01,Wunderground v.1.15,2013-01-29 15:15:00,
2013-01-29 05:20:00,63.9,60.3,29.87,NNE,23,1.0,-999.0,88,0.00,,,0.01,Wunderground v.1.15,2013-01-29 15:20:00,
2013-01-29 05:25:00,63.9,60.3,29.87,NNE,23,1.0,-999.0,88,0.00,,,0.01,Wunderground v.1.15,2013-01-29 15:25:00,
2013-01-29 05:30:00,63.9,60.3,29.87,NNE,23,1.0,-999.0,88,0.00,,,0.01,Wunderground v.1.15,2013-01-29 15:30:00,
2013-01-29 05:35:00,63.9,60.3,29.87,NNE,23,1.0,-999.0,88,0.00,,,0.01,Wunderground v.1.15,2013-01-29 15:35:00,
2013-01-29 05:40:00,63.9,60.3,29.87,NNE,23,1.0,-999.0,88,0.00,,,0.01,Wunderground v.1.15,2013-01-29 15:40:00,
2013-01-29 05:45:00,63.6,59.7,29.88,NNE,23,1.0,-999.0,87,0.00,,,0.01,Wunderground v.1.15,2013-01-29 15:45:00,
2013-01-29 05:50:00,63.6,59.7,29.88,NNE,23,1.0,-999.0,87,0.00,,,0.01,Wunderground v.1.15,2013-01-29 15:50:00,
2013-01-29 05:55:00,63.6,59.7,29.88,NNE,23,1.0,-999.0,87,0.00,,,0.01,Wunderground v.1.15,2013-01-29 15:55:00,
2013-01-29 06:00:00,63.6,59.7,29.88,NNE,23,1.0,-999.0,87,0.00,,,0.01,Wunderground v.1.15,2013-01-29 16:00:00,
2013-01-29 06:05:00,63.6,59.7,29.88,NNE,23,1.0,-999.0,87,0.00,,,0.01,Wunderground v.1.15,2013-01-29 16:05:00,
2013-01-29 06:10:00,63.6,59.7,29.88,NNE,23,1.0,-999.0,87,0.00,,,0.01,Wunderground v.1.15,2013-01-29 16:10:00,
2013-01-29 06:15:00,64.0,59.7,29.89,NNE,23,2.0,-999.0,86,0.00,,,0.01,Wunderground v.1.15,2013-01-29 16:15:00,
2013-01-29 06:20:00,64.0,59.7,29.89,NNE,23,2.0,-999.0,86,0.00,,,0.01,Wunderground v.1.15,2013-01-29 16:20:00,
2013-01-29 06:25:00,64.0,59.7,29.89,NNE,23,2.0,-999.0,86,0.00,,,0.01,Wunderground v.1.15,2013-01-29 16:25:00,
2013-01-29 06:30:00,64.0,59.7,29.89,NNE,23,2.0,-999.0,86,0.00,,,0.01,Wunderground v.1.15,2013-01-29 16:30:00,
2013-01-29 06:35:00,64.0,59.7,29.89,NNE,23,2.0,-999.0,86,0.00,,,0.01,Wunderground v.1.15,2013-01-29 16:35:00,
2013-01-29 06:40:00,64.0,59.7,29.89,NNE,23,2.0,-999.0,86,0.00,,,0.01,Wunderground v.1.15,2013-01-29 16:40:00,
2013-01-29 06:45:00,64.2,59.9,29.90,NNE,23,0.0,-999.0,86,0.00,,,0.01,Wunderground v.1.15,2013-01-29 16:45:00,
2013-01-29 06:50:00,64.2,59.9,29.90,NNE,23,0.0,-999.0,86,0.00,,,0.01,Wunderground v.1.15,2013-01-29 16:50:00,
2013-01-29 06:55:00,64.2,59.9,29.90,NNE,23,0.0,-999.0,86,0.00,,,0.01,Wunderground v.1.15,2013-01-29 16:55:00,
2013-01-29 07:00:00,64.2,59.9,29.90,NNE,23,0.0,-999.0,86,0.00,,,0.01,Wunderground v.1.15,2013-01-29 17:00:00,
2013-01-29 07:05:00,64.2,59.9,29.90,NNE,23,0.0,-999.0,86,0.00,,,0.01,Wunderground v.1.15,2013-01-29 17:05:00,
2013-01-29 07:10:00,64.2,59.9,29.90,NNE,23,0.0,-999.0,86,0.00,,,0.01,Wunderground v.1.15,2013-01-29 17:10:00,
2013-01-29 07:15:00,64.2,60.2,29.91,NNE,23,0.0,-999.0,87,0.00,,,0.01,Wunderground v.1.15,2013-01-29 17:15:00,
2013-01-29 07:20:00,64.2,60.2,29.91,NNE,23,0.0,-999.0,87,0.00,,,0.01,Wunderground v.1.15,2013-01-29 17:20:00,
2013-01-29 07:25:00,64.2,60.2,29.91,NNE,23,0.0,-999.0,87,0.00,,,0.01,Wunderground v.1.15,2013-01-29 17:25:00,
2013-01-29 07:30:00,64.2,60.2,29.91,NNE,23,0.0,-999.0,87,0.00,,,0.01,Wunderground v.1.15,2013-01-29 17:30:00,
2013-01-29 07:35:00,64.2,60.2,29.91,NNE,23,0.0,-999.0,87,0.00,,,0.01,Wunderground v.1.15,2013-01-29 17:35:00,
2013-01-29 07:40:00,64.2,60.2,29.91,NNE,23,0.0,-999.0,87,0.00,,,0.01,Wunderground v.1.15,2013-01-29 17:40:00,
2013-01-29 07:45:00,65.3,61.0,29.91,NNE,23,0.0,-999.0,86,0.00,,,0.01,Wunderground v.1.15,2013-01-29 17:45:00,
2013-01-29 07:50:00,65.3,61.0,29.91,NNE,23,0.0,-999.0,86,0.00,,,0.01,Wunderground v.1.15,2013-01-29 17:50:00,
2013-01-29 07:55:00,65.3,61.0,29.91,NNE,23,0.0,-999.0,86,0.00,,,0.01,Wunderground v.1.15,2013-01-29 17:55:00,
2013-01-29 08:00:00,65.3,61.0,29.91,NNE,23,0.0,-999.0,86,0.00,,,0.01,Wunderground v.1.15,2013-01-29 18:00:00,
2013-01-29 08:05:00,65.3,61.0,29.91,NNE,23,0.0,-999.0,86,0.00,,,0.01,Wunderground v.1.15,2013-01-29 18:05:00,
2013-01-29 08:10:00,65.3,61.0,29.91,NNE,23,0.0,-999.0,86,0.00,,,0.01,Wunderground v.1.15,2013-01-29 18:10:00,
2013-01-29 08:15:00,66.8,62.8,29.91,NNE,23,0.0,-999.0,87,0.00,,,0.01,Wunderground v.1.15,2013-01-29 18:15:00,
2013-01-29 08:20:00,66.8,62.8,29.91,NNE,23,0.0,-999.0,87,0.00,,,0.01,Wunderground v.1.15,2013-01-29 18:20:00,
2013-01-29 08:25:00,66.8,62.8,29.91,NNE,23,0.0,-999.0,87,0.00,,,0.01,Wunderground v.1.15,2013-01-29 18:25:00,
2013-01-29 08:30:00,66.8,62.8,29.91,NNE,23,0.0,-999.0,87,0.00,,,0.00,Wunderground v.1.15,2013-01-29 18:30:00,
2013-01-29 08:35:00,66.8,62.8,29.91,NNE,23,0.0,-999.0,87,0.00,,,0.00,Wunderground v.1.15,2013-01-29 18:35:00,
2013-01-29 08:40:00,66.8,62.8,29.91,NNE,23,0.0,-999.0,87,0.00,,,0.00,Wunderground v.1.15,2013-01-29 18:40:00,
2013-01-29 08:45:00,68.8,63.8,29.92,NNE,23,1.0,-999.0,84,0.00,,,0.00,Wunderground v.1.15,2013-01-29 18:45:00,
2013-01-29 08:50:00,68.8,63.8,29.92,NNE,23,1.0,-999.0,84,0.00,,,0.00,Wunderground v.1.15,2013-01-29 18:50:00,
2013-01-29 08:55:00,68.8,63.8,29.92,NNE,23,1.0,-999.0,84,0.00,,,0.00,Wunderground v.1.15,2013-01-29 18:55:00,
2013-01-29 09:00:00,68.8,63.8,29.92,NNE,23,1.0,-999.0,84,0.00,,,0.00,Wunderground v.1.15,2013-01-29 19:00:00,
2013-01-29 09:05:00,68.8,63.8,29.92,NNE,23,1.0,-999.0,84,0.00,,,0.00,Wunderground v.1.15,2013-01-29 19:05:00,
2013-01-29 09:10:00,68.8,63.8,29.92,NNE,23,1.0,-999.0,84,0.00,,,0.00,Wunderground v.1.15,2013-01-29 19:10:00,
2013-01-29 09:15:00,71.7,64.1,29.93,NNE,23,2.0,-999.0,77,0.00,,,0.00,Wunderground v.1.15,2013-01-29 19:15:00,
2013-01-29 09:20:00,71.7,64.1,29.93,NNE,23,2.0,-999.0,77,0.00,,,0.00,Wunderground v.1.15,2013-01-29 19:20:00,
2013-01-29 09:25:00,71.7,64.1,29.93,NNE,23,2.0,-999.0,77,0.00,,,0.00,Wunderground v.1.15,2013-01-29 19:25:00,
2013-01-29 09:30:00,71.7,64.1,29.93,NNE,23,2.0,-999.0,77,0.00,,,0.00,Wunderground v.1.15,2013-01-29 19:30:00,
2013-01-29 09:35:00,71.7,64.1,29.93,NNE,23,2.0,-999.0,77,0.00,,,0.00,Wunderground v.1.15,2013-01-29 19:35:00,
2013-01-29 09:40:00,71.7,64.1,29.93,NNE,23,2.0,-999.0,77,0.00,,,0.00,Wunderground v.1.15,2013-01-29 19:40:00,
2013-01-29 09:45:00,73.6,67.4,29.94,NNE,23,2.0,-999.0,81,0.00,,,0.00,Wunderground v.1.15,2013-01-29 19:45:00,
2013-01-29 09:50:00,73.6,67.4,29.94,NNE,23,2.0,-999.0,81,0.00,,,0.00,Wunderground v.1.15,2013-01-29 19:50:00,
2013-01-29 09:55:00,73.6,67.4,29.94,NNE,23,2.0,-999.0,81,0.00,,,0.00,Wunderground v.1.15,2013-01-29 19:55:00,
2013-01-29 10:00:00,73.6,67.4,29.94,NNE,23,2.0,-999.0,81,0.00,,,0.00,Wunderground v.1.15,2013-01-29 20:00:00,
2013-01-29 10:05:00,73.6,67.4,29.94,NNE,23,2.0,-999.0,81,0.00,,,0.00,Wunderground v.1.15,2013-01-29 20:05:00,
2013-01-29 10:10:00,73.6,67.4,29.94,NNE,23,2.0,-999.0,81,0.00,,,0.00,Wunderground v.1.15,2013-01-29 20:10:00,
2013-01-29 10:15:00,70.8,67.1,29.94,North,0,1.0,-999.0,88,0.00,,,0.00,Wunderground v.1.15,2013-01-29 20:15:00,
2013-01-29 10:20:00,70.8,67.1,29.94,North,0,1.0,-999.0,88,0.00,,,0.00,Wunderground v.1.15,2013-01-29 20:20:00,
2013-01-29 10:25:00,70.8,67.1,29.94,North,0,1.0,-999.0,88,0.00,,,0.00,Wunderground v.1.15,2013-01-29 20:25:00,
2013-01-29 10:30:00,70.8,67.1,29.94,North,0,1.0,-999.0,88,0.00,,,0.00,Wunderground v.1.15,2013-01-29 20:30:00,
2013-01-29 10:35:00,70.8,67.1,29.94,North,0,1.0,-999.0,88,0.00,,,0.00,Wunderground v.1.15,2013-01-29 20:35:00,
2013-01-29 10:40:00,70.8,67.1,29.94,North,0,1.0,-999.0,88,0.00,,,0.00,Wunderground v.1.15,2013-01-29 20:40:00,
2013-01-29 10:45:00,71.1,65.3,29.94,North,0,0.0,-999.0,82,0.00,,,0.00,Wunderground v.1.15,2013-01-29 20:45:00,
2013-01-29 10:50:00,71.1,65.3,29.94,North,0,0.0,-999.0,82,0.00,,,0.00,Wunderground v.1.15,2013-01-29 20:50:00,
2013-01-29 10:55:00,71.1,65.3,29.94,North,0,0.0,-999.0,82,0.00,,,0.00,Wunderground v.1.15,2013-01-29 20:55:00,
2013-01-29 11:00:00,71.1,65.3,29.94,North,0,0.0,-999.0,82,0.00,,,0.00,Wunderground v.1.15,2013-01-29 21:00:00,
2013-01-29 11:05:00,71.1,65.3,29.94,North,0,0.0,-999.0,82,0.00,,,0.01,Wunderground v.1.15,2013-01-29 21:05:00,
2013-01-29 11:10:00,71.1,65.3,29.94,North,0,0.0,-999.0,82,0.00,,,0.01,Wunderground v.1.15,2013-01-29 21:10:00,
2013-01-29 11:15:00,72.2,65.0,29.93,North,0,0.0,-999.0,78,0.00,,,0.01,Wunderground v.1.15,2013-01-29 21:15:00,
2013-01-29 11:20:00,72.2,65.0,29.93,North,0,0.0,-999.0,78,0.00,,,0.01,Wunderground v.1.15,2013-01-29 21:20:00,
2013-01-29 11:25:00,72.2,65.0,29.93,North,0,0.0,-999.0,78,0.00,,,0.01,Wunderground v.1.15,2013-01-29 21:25:00,
2013-01-29 11:30:00,72.2,65.0,29.93,North,0,0.0,-999.0,78,0.00,,,0.01,Wunderground v.1.15,2013-01-29 21:30:00,
2013-01-29 11:35:00,72.2,65.0,29.93,North,0,0.0,-999.0,78,0.00,,,0.01,Wunderground v.1.15,2013-01-29 21:35:00,
2013-01-29 11:40:00,72.2,65.0,29.93,North,0,0.0,-999.0,78,0.00,,,0.01,Wunderground v.1.15,2013-01-29 21:40:00,
2013-01-29 11:45:00,70.7,67.0,29.93,NNW,338,3.0,-999.0,88,0.00,,,0.01,Wunderground v.1.15,2013-01-29 21:45:00,
2013-01-29 11:50:00,70.7,67.0,29.93,NNW,338,3.0,-999.0,88,0.00,,,0.01,Wunderground v.1.15,2013-01-29 21:50:00,
2013-01-29 11:55:00,70.7,67.0,29.93,NNW,338,3.0,-999.0,88,0.00,,,0.01,Wunderground v.1.15,2013-01-29 21:55:00,
2013-01-29 12:00:00,70.7,67.0,29.93,NNW,338,3.0,-999.0,88,0.00,,,0.01,Wunderground v.1.15,2013-01-29 22:00:00,
2013-01-29 12:05:00,70.7,67.0,29.93,NNW,338,3.0,-999.0,88,0.00,,,0.01,Wunderground v.1.15,2013-01-29 22:05:00,
2013-01-29 12:10:00,70.7,67.0,29.93,NNW,338,3.0,-999.0,88,0.00,,,0.01,Wunderground v.1.15,2013-01-29 22:10:00,
2013-01-29 12:15:00,67.2,64.5,29.92,NW,315,3.0,-999.0,91,0.00,,,0.01,Wunderground v.1.15,2013-01-29 22:15:00,
2013-01-29 12:20:00,67.2,64.5,29.92,NW,315,3.0,-999.0,91,0.00,,,0.01,Wunderground v.1.15,2013-01-29 22:20:00,
2013-01-29 12:25:00,67.2,64.5,29.92,NW,315,3.0,-999.0,91,0.00,,,0.01,Wunderground v.1.15,2013-01-29 22:25:00,
2013-01-29 12:30:00,67.2,64.5,29.92,NW,315,3.0,-999.0,91,0.00,,,0.01,Wunderground v.1.15,2013-01-29 22:30:00,
2013-01-29 12:35:00,67.2,64.5,29.92,NW,315,3.0,-999.0,91,0.00,,,0.01,Wunderground v.1.15,2013-01-29 22:35:00,
2013-01-29 12:40:00,67.2,64.5,29.92,NW,315,3.0,-999.0,91,0.00,,,0.01,Wunderground v.1.15,2013-01-29 22:40:00,
2013-01-29 12:45:00,67.5,65.1,29.91,NW,315,0.0,-999.0,92,0.00,,,0.01,Wunderground v.1.15,2013-01-29 22:45:00,
2013-01-29 12:50:00,67.5,65.1,29.91,NW,315,0.0,-999.0,92,0.00,,,0.01,Wunderground v.1.15,2013-01-29 22:50:00,
2013-01-29 12:55:00,67.5,65.1,29.91,NW,315,0.0,-999.0,92,0.00,,,0.01,Wunderground v.1.15,2013-01-29 22:55:00,
2013-01-29 13:00:00,67.5,65.1,29.91,NW,315,0.0,-999.0,92,0.00,,,0.01,Wunderground v.1.15,2013-01-29 23:00:00,
2013-01-29 13:05:00,67.5,65.1,29.91,NW,315,0.0,-999.0,92,0.00,,,0.01,Wunderground v.1.15,2013-01-29 23:05:00,
2013-01-29 13:10:00,67.5,65.1,29.91,NW,315,0.0,-999.0,92,0.00,,,0.01,Wunderground v.1.15,2013-01-29 23:10:00,
2013-01-29 13:15:00,69.6,66.5,29.89,NW,315,0.0,-999.0,90,0.01,,,0.01,Wunderground v.1.15,2013-01-29 23:15:00,
2013-01-29 13:20:00,69.6,66.5,29.89,NW,315,0.0,-999.0,90,0.01,,,0.01,Wunderground v.1.15,2013-01-29 23:20:00,
2013-01-29 13:25:00,69.6,66.5,29.89,NW,315,0.0,-999.0,90,0.01,,,0.01,Wunderground v.1.15,2013-01-29 23:25:00,
2013-01-29 13:30:00,69.6,66.5,29.89,NW,315,0.0,-999.0,90,0.01,,,0.01,Wunderground v.1.15,2013-01-29 23:30:00,
2013-01-29 13:35:00,69.6,66.5,29.89,NW,315,0.0,-999.0,90,0.01,,,0.01,Wunderground v.1.15,2013-01-29 23:35:00,
2013-01-29 13:40:00,69.6,66.5,29.89,NW,315,0.0,-999.0,90,0.01,,,0.01,Wunderground v.1.15,2013-01-29 23:40:00,
2013-01-29 13:45:00,70.1,66.7,29.89,NW,315,1.0,-999.0,89,0.01,,,0.01,Wunderground v.1.15,2013-01-29 23:45:00,
2013-01-29 13:50:00,70.1,66.7,29.89,NW,315,1.0,-999.0,89,0.01,,,0.01,Wunderground v.1.15,2013-01-29 23:50:00,
2013-01-29 13:55:00,70.1,66.7,29.89,NW,315,1.0,-999.0,89,0.01,,,0.01,Wunderground v.1.15,2013-01-29 23:55:00,
2013-01-29 14:00:00,70.1,66.7,29.89,NW,315,1.0,-999.0,89,0.01,,,0.01,Wunderground v.1.15,2013-01-30 00:00:00,
2013-01-29 14:05:00,70.1,66.7,29.89,NW,315,1.0,-999.0,89,0.01,,,0.01,Wunderground v.1.15,2013-01-30 00:05:00,
2013-01-29 14:10:00,70.1,66.7,29.89,NW,315,1.0,-999.0,89,0.01,,,0.01,Wunderground v.1.15,2013-01-30 00:10:00,
2013-01-29 14:15:00,69.4,66.0,29.89,NW,315,0.0,-999.0,89,0.00,,,0.01,Wunderground v.1.15,2013-01-30 00:15:00,
2013-01-29 14:20:00,69.4,66.0,29.89,NW,315,0.0,-999.0,89,0.00,,,0.01,Wunderground v.1.15,2013-01-30 00:20:00,
2013-01-29 14:25:00,69.4,66.0,29.89,NW,315,0.0,-999.0,89,0.00,,,0.01,Wunderground v.1.15,2013-01-30 00:25:00,
2013-01-29 14:30:00,69.4,66.0,29.89,NW,315,0.0,-999.0,89,0.00,,,0.01,Wunderground v.1.15,2013-01-30 00:30:00,
2013-01-29 14:35:00,69.4,66.0,29.89,NW,315,0.0,-999.0,89,0.00,,,0.01,Wunderground v.1.15,2013-01-30 00:35:00,
2013-01-29 14:40:00,69.4,66.0,29.89,NW,315,0.0,-999.0,89,0.00,,,0.01,Wunderground v.1.15,2013-01-30 00:40:00,
2013-01-29 14:45:00,68.7,66.0,29.88,NW,315,0.0,-999.0,91,0.00,,,0.01,Wunderground v.1.15,2013-01-30 00:45:00,
2013-01-29 14:50:00,68.7,66.0,29.88,NW,315,0.0,-999.0,91,0.00,,,0.01,Wunderground v.1.15,2013-01-30 00:50:00,
2013-01-29 14:55:00,68.7,66.0,29.88,NW,315,0.0,-999.0,91,0.00,,,0.01,Wunderground v.1.15,2013-01-30 00:55:00,
2013-01-29 15:00:00,68.7,66.0,29.88,NW,315,0.0,-999.0,91,0.00,,,0.01,Wunderground v.1.15,2013-01-30 01:00:00,
2013-01-29 15:05:00,68.7,66.0,29.88,NW,315,0.0,-999.0,91,0.00,,,0.01,Wunderground v.1.15,2013-01-30 01:05:00,
2013-01-29 15:10:00,68.7,66.0,29.88,NW,315,0.0,-999.0,91,0.00,,,0.01,Wunderground v.1.15,2013-01-30 01:10:00,
2013-01-29 15:15:00,69.2,66.5,29.88,NW,315,0.0,-999.0,91,0.00,,,0.01,Wunderground v.1.15,2013-01-30 01:15:00,
2013-01-29 15:20:00,69.2,66.5,29.88,NW,315,0.0,-999.0,91,0.00,,,0.01,Wunderground v.1.15,2013-01-30 01:20:00,
2013-01-29 15:25:00,69.2,66.5,29.88,NW,315,0.0,-999.0,91,0.00,,,0.01,Wunderground v.1.15,2013-01-30 01:25:00,
2013-01-29 15:30:00,69.2,66.5,29.88,NW,315,0.0,-999.0,91,0.00,,,0.01,Wunderground v.1.15,2013-01-30 01:30:00,
2013-01-29 15:35:00,69.2,66.5,29.88,NW,315,0.0,-999.0,91,0.00,,,0.01,Wunderground v.1.15,2013-01-30 01:35:00,
2013-01-29 15:40:00,69.2,66.5,29.88,NW,315,0.0,-999.0,91,0.00,,,0.01,Wunderground v.1.15,2013-01-30 01:40:00,
2013-01-29 15:45:00,69.3,66.2,29.88,NW,315,0.0,-999.0,90,0.00,,,0.01,Wunderground v.1.15,2013-01-30 01:45:00,
2013-01-29 15:50:00,69.3,66.2,29.88,NW,315,0.0,-999.0,90,0.00,,,0.01,Wunderground v.1.15,2013-01-30 01:50:00,
2013-01-29 15:55:00,69.3,66.2,29.88,NW,315,0.0,-999.0,90,0.00,,,0.01,Wunderground v.1.15,2013-01-30 01:55:00,
2013-01-29 16:00:00,69.3,66.2,29.88,NW,315,0.0,-999.0,90,0.00,,,0.01,Wunderground v.1.15,2013-01-30 02:00:00,
2013-01-29 16:05:00,69.3,66.2,29.88,NW,315,0.0,-999.0,90,0.00,,,0.01,Wunderground v.1.15,2013-01-30 02:05:00,
2013-01-29 16:10:00,69.3,66.2,29.88,NW,315,0.0,-999.0,90,0.00,,,0.01,Wunderground v.1.15,2013-01-30 02:10:00,
2013-01-29 16:15:00,69.3,66.2,29.89,NW,315,0.0,-999.0,90,0.00,,,0.01,Wunderground v.1.15,2013-01-30 02:15:00,
2013-01-29 16:20:00,69.3,66.2,29.89,NW,315,0.0,-999.0,90,0.00,,,0.01,Wunderground v.1.15,2013-01-30 02:20:00,
2013-01-29 16:25:00,69.3,66.2,29.89,NW,315,0.0,-999.0,90,0.00,,,0.01,Wunderground v.1.15,2013-01-30 02:25:00,
2013-01-29 16:30:00,69.3,66.2,29.89,NW,315,0.0,-999.0,90,0.00,,,0.01,Wunderground v.1.15,2013-01-30 02:30:00,
2013-01-29 16:35:00,69.3,66.2,29.89,NW,315,0.0,-999.0,90,0.00,,,0.01,Wunderground v.1.15,2013-01-30 02:35:00,
2013-01-29 16:40:00,69.3,66.2,29.89,NW,315,0.0,-999.0,90,0.00,,,0.01,Wunderground v.1.15,2013-01-30 02:40:00,
2013-01-29 16:45:00,68.9,65.5,29.90,NW,315,1.0,-999.0,89,0.00,,,0.01,Wunderground v.1.15,2013-01-30 02:45:00,
2013-01-29 16:50:00,68.9,65.5,29.90,NW,315,1.0,-999.0,89,0.00,,,0.01,Wunderground v.1.15,2013-01-30 02:50:00,
2013-01-29 16:55:00,68.9,65.5,29.90,NW,315,1.0,-999.0,89,0.00,,,0.01,Wunderground v.1.15,2013-01-30 02:55:00,
2013-01-29 17:00:00,68.9,65.5,29.90,NW,315,1.0,-999.0,89,0.00,,,0.01,Wunderground v.1.15,2013-01-30 03:00:00,
2013-01-29 17:05:00,68.9,65.5,29.90,NW,315,1.0,-999.0,89,0.00,,,0.02,Wunderground v.1.15,2013-01-30 03:05:00,
2013-01-29 17:10:00,68.9,65.5,29.90,NW,315,1.0,-999.0,89,0.00,,,0.02,Wunderground v.1.15,2013-01-30 03:10:00,
2013-01-29 17:15:00,68.5,64.8,29.91,NW,315,0.0,-999.0,88,0.00,,,0.02,Wunderground v.1.15,2013-01-30 03:15:00,
2013-01-29 17:20:00,68.5,64.8,29.91,NW,315,0.0,-999.0,88,0.00,,,0.02,Wunderground v.1.15,2013-01-30 03:20:00,
2013-01-29 17:25:00,68.5,64.8,29.91,NW,315,0.0,-999.0,88,0.00,,,0.02,Wunderground v.1.15,2013-01-30 03:25:00,
2013-01-29 17:30:00,68.5,64.8,29.91,NW,315,0.0,-999.0,88,0.00,,,0.02,Wunderground v.1.15,2013-01-30 03:30:00,
2013-01-29 17:35:00,68.5,64.8,29.91,NW,315,0.0,-999.0,88,0.00,,,0.02,Wunderground v.1.15,2013-01-30 03:35:00,
2013-01-29 17:40:00,68.5,64.8,29.91,NW,315,0.0,-999.0,88,0.00,,,0.02,Wunderground v.1.15,2013-01-30 03:40:00,
2013-01-29 17:45:00,67.8,64.4,29.91,NW,315,0.0,-999.0,89,0.00,,,0.02,Wunderground v.1.15,2013-01-30 03:45:00,
2013-01-29 17:50:00,67.8,64.4,29.91,NW,315,0.0,-999.0,89,0.00,,,0.02,Wunderground v.1.15,2013-01-30 03:50:00,
2013-01-29 17:55:00,67.8,64.4,29.91,NW,315,0.0,-999.0,89,0.00,,,0.02,Wunderground v.1.15,2013-01-30 03:55:00,
2013-01-29 18:00:00,67.8,64.4,29.91,NW,315,0.0,-999.0,89,0.00,,,0.02,Wunderground v.1.15,2013-01-30 04:00:00,
2013-01-29 18:05:00,67.8,64.4,29.91,NW,315,0.0,-999.0,89,0.00,,,0.02,Wunderground v.1.15,2013-01-30 04:05:00,
2013-01-29 18:10:00,67.8,64.4,29.91,NW,315,0.0,-999.0,89,0.00,,,0.02,Wunderground v.1.15,2013-01-30 04:10:00,
2013-01-29 18:15:00,67.3,63.9,29.91,NW,315,0.0,-999.0,89,0.00,,,0.02,Wunderground v.1.15,2013-01-30 04:15:00,
2013-01-29 18:20:00,67.3,63.9,29.91,NW,315,0.0,-999.0,89,0.00,,,0.02,Wunderground v.1.15,2013-01-30 04:20:00,
2013-01-29 18:25:00,67.3,63.9,29.91,NW,315,0.0,-999.0,89,0.00,,,0.02,Wunderground v.1.15,2013-01-30 04:25:00,
2013-01-29 18:30:00,67.3,63.9,29.91,NW,315,0.0,-999.0,89,0.00,,,0.02,Wunderground v.1.15,2013-01-30 04:30:00,
2013-01-29 18:35:00,67.3,63.9,29.91,NW,315,0.0,-999.0,89,0.00,,,0.02,Wunderground v.1.15,2013-01-30 04:35:00,
2013-01-29 18:40:00,67.3,63.9,29.91,NW,315,0.0,-999.0,89,0.00,,,0.02,Wunderground v.1.15,2013-01-30 04:40:00,
2013-01-29 18:45:00,66.8,62.8,29.92,NW,315,0.0,-999.0,87,0.00,,,0.02,Wunderground v.1.15,2013-01-30 04:45:00,
2013-01-29 18:50:00,66.8,62.8,29.92,NW,315,0.0,-999.0,87,0.00,,,0.02,Wunderground v.1.15,2013-01-30 04:50:00,
2013-01-29 18:55:00,66.8,62.8,29.92,NW,315,0.0,-999.0,87,0.00,,,0.02,Wunderground v.1.15,2013-01-30 04:55:00,
2013-01-29 19:00:00,66.8,62.8,29.92,NW,315,0.0,-999.0,87,0.00,,,0.02,Wunderground v.1.15,2013-01-30 05:00:00,
2013-01-29 19:05:00,66.8,62.8,29.92,NW,315,0.0,-999.0,87,0.00,,,0.02,Wunderground v.1.15,2013-01-30 05:05:00,
2013-01-29 19:10:00,66.8,62.8,29.92,NW,315,0.0,-999.0,87,0.00,,,0.02,Wunderground v.1.15,2013-01-30 05:10:00,
2013-01-29 19:15:00,66.6,62.6,29.93,NW,315,0.0,-999.0,87,0.00,,,0.02,Wunderground v.1.15,2013-01-30 05:15:00,
2013-01-29 19:20:00,66.6,62.6,29.93,NW,315,0.0,-999.0,87,0.00,,,0.02,Wunderground v.1.15,2013-01-30 05:20:00,
2013-01-29 19:25:00,66.6,62.6,29.93,NW,315,0.0,-999.0,87,0.00,,,0.02,Wunderground v.1.15,2013-01-30 05:25:00,
2013-01-29 19:30:00,66.6,62.6,29.93,NW,315,0.0,-999.0,87,0.00,,,0.02,Wunderground v.1.15,2013-01-30 05:30:00,
2013-01-29 19:35:00,66.6,62.6,29.93,NW,315,0.0,-999.0,87,0.00,,,0.02,Wunderground v.1.15,2013-01-30 05:35:00,
2013-01-29 19:40:00,66.6,62.6,29.93,NW,315,0.0,-999.0,87,0.00,,,0.02,Wunderground v.1.15,2013-01-30 05:40:00,
2013-01-29 19:45:00,66.5,62.5,29.95,NW,315,0.0,-999.0,87,0.00,,,0.02,Wunderground v.1.15,2013-01-30 05:45:00,
2013-01-29 19:50:00,66.5,62.5,29.95,NW,315,0.0,-999.0,87,0.00,,,0.02,Wunderground v.1.15,2013-01-30 05:50:00,
2013-01-29 19:55:00,66.5,62.5,29.95,NW,315,0.0,-999.0,87,0.00,,,0.02,Wunderground v.1.15,2013-01-30 05:55:00,
2013-01-29 20:00:00,66.5,62.5,29.95,NW,315,0.0,-999.0,87,0.00,,,0.02,Wunderground v.1.15,2013-01-30 06:00:00,
2013-01-29 20:05:00,66.5,62.5,29.95,NW,315,0.0,-999.0,87,0.00,,,0.02,Wunderground v.1.15,2013-01-30 06:05:00,
2013-01-29 20:10:00,66.5,62.5,29.95,NW,315,0.0,-999.0,87,0.00,,,0.02,Wunderground v.1.15,2013-01-30 06:10:00,
2013-01-29 20:15:00,66.1,62.4,29.95,NW,315,0.0,-999.0,88,0.01,,,0.02,Wunderground v.1.15,2013-01-30 06:15:00,
2013-01-29 20:20:00,66.1,62.4,29.95,NW,315,0.0,-999.0,88,0.01,,,0.02,Wunderground v.1.15,2013-01-30 06:20:00,
2013-01-29 20:25:00,66.1,62.4,29.95,NW,315,0.0,-999.0,88,0.01,,,0.02,Wunderground v.1.15,2013-01-30 06:25:00,
2013-01-29 20:30:00,66.1,62.4,29.95,NW,315,0.0,-999.0,88,0.01,,,0.02,Wunderground v.1.15,2013-01-30 06:30:00,
2013-01-29 20:35:00,66.1,62.4,29.95,NW,315,0.0,-999.0,88,0.01,,,0.02,Wunderground v.1.15,2013-01-30 06:35:00,
2013-01-29 20:40:00,66.1,62.4,29.95,NW,315,0.0,-999.0,88,0.01,,,0.02,Wunderground v.1.15,2013-01-30 06:40:00,
2013-01-29 20:45:00,65.8,62.1,29.96,NW,315,0.0,-999.0,88,0.01,,,0.02,Wunderground v.1.15,2013-01-30 06:45:00,
2013-01-29 20:50:00,65.8,62.1,29.96,NW,315,0.0,-999.0,88,0.01,,,0.02,Wunderground v.1.15,2013-01-30 06:50:00,
2013-01-29 20:55:00,65.8,62.1,29.96,NW,315,0.0,-999.0,88,0.01,,,0.02,Wunderground v.1.15,2013-01-30 06:55:00,
2013-01-29 21:00:00,65.8,62.1,29.96,NW,315,0.0,-999.0,88,0.01,,,0.02,Wunderground v.1.15,2013-01-30 07:00:00,
2013-01-29 21:05:00,65.8,62.1,29.96,NW,315,0.0,-999.0,88,0.01,,,0.02,Wunderground v.1.15,2013-01-30 07:05:00,
2013-01-29 21:10:00,65.8,62.1,29.96,NW,315,0.0,-999.0,88,0.01,,,0.02,Wunderground v.1.15,2013-01-30 07:10:00,
2013-01-29 21:15:00,65.7,61.4,29.95,NW,315,0.0,-999.0,86,0.00,,,0.02,Wunderground v.1.15,2013-01-30 07:15:00,
2013-01-29 21:20:00,65.7,61.4,29.95,NW,315,0.0,-999.0,86,0.00,,,0.02,Wunderground v.1.15,2013-01-30 07:20:00,
2013-01-29 21:25:00,65.7,61.4,29.95,NW,315,0.0,-999.0,86,0.00,,,0.02,Wunderground v.1.15,2013-01-30 07:25:00,
2013-01-29 21:30:00,65.7,61.4,29.95,NW,315,0.0,-999.0,86,0.00,,,0.02,Wunderground v.1.15,2013-01-30 07:30:00,
2013-01-29 21:35:00,65.7,61.4,29.95,NW,315,0.0,-999.0,86,0.00,,,0.04,Wunderground v.1.15,2013-01-30 07:35:00,
2013-01-29 21:40:00,65.7,61.4,29.95,NW,315,0.0,-999.0,86,0.00,,,0.04,Wunderground v.1.15,2013-01-30 07:40:00,
2013-01-29 21:45:00,65.8,61.5,29.96,NW,315,0.0,-999.0,86,0.01,,,0.04,Wunderground v.1.15,2013-01-30 07:45:00,
2013-01-29 21:50:00,65.8,61.5,29.96,NW,315,0.0,-999.0,86,0.01,,,0.04,Wunderground v.1.15,2013-01-30 07:50:00,
2013-01-29 21:55:00,65.8,61.5,29.96,NW,315,0.0,-999.0,86,0.01,,,0.04,Wunderground v.1.15,2013-01-30 07:55:00,
2013-01-29 22:00:00,65.8,61.5,29.96,NW,315,0.0,-999.0,86,0.01,,,0.04,Wunderground v.1.15,2013-01-30 08:00:00,
2013-01-29 22:05:00,65.8,61.5,29.96,NW,315,0.0,-999.0,86,0.01,,,0.04,Wunderground v.1.15,2013-01-30 08:05:00,
2013-01-29 22:10:00,65.8,61.5,29.96,NW,315,0.0,-999.0,86,0.01,,,0.04,Wunderground v.1.15,2013-01-30 08:10:00,
2013-01-29 22:15:00,66.1,61.1,29.96,NW,315,1.0,-999.0,84,0.01,,,0.04,Wunderground v.1.15,2013-01-30 08:15:00,
2013-01-29 22:20:00,66.1,61.1,29.96,NW,315,1.0,-999.0,84,0.01,,,0.04,Wunderground v.1.15,2013-01-30 08:20:00,
2013-01-29 22:25:00,66.1,61.1,29.96,NW,315,1.0,-999.0,84,0.01,,,0.04,Wunderground v.1.15,2013-01-30 08:25:00,
2013-01-29 22:30:00,66.1,61.1,29.96,NW,315,1.0,-999.0,84,0.01,,,0.04,Wunderground v.1.15,2013-01-30 08:30:00,
2013-01-29 22:35:00,66.1,61.1,29.96,NW,315,1.0,-999.0,84,0.01,,,0.04,Wunderground v.1.15,2013-01-30 08:35:00,
2013-01-29 22:40:00,66.1,61.1,29.96,NW,315,1.0,-999.0,84,0.01,,,0.04,Wunderground v.1.15,2013-01-30 08:40:00,
2013-01-29 22:45:00,66.2,60.9,29.95,NW,315,0.0,-999.0,83,0.00,,,0.04,Wunderground v.1.15,2013-01-30 08:45:00,
2013-01-29 22:50:00,66.2,60.9,29.95,NW,315,0.0,-999.0,83,0.00,,,0.04,Wunderground v.1.15,2013-01-30 08:50:00,
2013-01-29 22:55:00,66.2,60.9,29.95,NW,315,0.0,-999.0,83,0.00,,,0.04,Wunderground v.1.15,2013-01-30 08:55:00,
2013-01-29 23:00:00,66.2,60.9,29.95,NW,315,0.0,-999.0,83,0.00,,,0.04,Wunderground v.1.15,2013-01-30 09:00:00,
2013-01-29 23:05:00,66.2,60.9,29.95,NW,315,0.0,-999.0,83,0.00,,,0.04,Wunderground v.1.15,2013-01-30 09:05:00,
2013-01-29 23:10:00,66.2,60.9,29.95,NW,315,0.0,-999.0,83,0.00,,,0.04,Wunderground v.1.15,2013-01-30 09:10:00,
2013-01-29 23:15:00,66.1,61.1,29.95,NW,315,0.0,-999.0,84,0.00,,,0.04,Wunderground v.1.15,2013-01-30 09:15:00,
2013-01-29 23:20:00,66.1,61.1,29.95,NW,315,0.0,-999.0,84,0.00,,,0.04,Wunderground v.1.15,2013-01-30 09:20:00,
2013-01-29 23:25:00,66.1,61.1,29.95,NW,315,0.0,-999.0,84,0.00,,,0.04,Wunderground v.1.15,2013-01-30 09:25:00,
2013-01-29 23:30:00,66.1,61.1,29.95,NW,315,0.0,-999.0,84,0.00,,,0.04,Wunderground v.1.15,2013-01-30 09:30:00,
2013-01-29 23:35:00,66.1,61.1,29.95,NW,315,0.0,-999.0,84,0.00,,,0.04,Wunderground v.1.15,2013-01-30 09:35:00,
2013-01-29 23:40:00,66.1,61.1,29.95,NW,315,0.0,-999.0,84,0.00,,,0.04,Wunderground v.1.15,2013-01-30 09:40:00,
2013-01-29 23:45:00,65.7,61.1,29.95,NW,315,0.0,-999.0,85,0.01,,,0.04,Wunderground v.1.15,2013-01-30 09:45:00,
2013-01-29 23:50:00,65.7,61.1,29.95,NW,315,0.0,-999.0,85,0.01,,,0.04,Wunderground v.1.15,2013-01-30 09:50:00,
2013-01-29 23:55:00,65.7,61.1,29.95,NW,315,0.0,-999.0,85,0.01,,,0.04,Wunderground v.1.15,2013-01-30 09:55:00,